QPF
0.01 0.01 0.01 0.01 0.01 0.01 0.01 0.00 0.01 0.01 0.01 0.02 0.02 0.02 0.04 0.05 0.03 0.03 0.02 0.02 0.03 0.03 0.06 0.05 0.03 0.02 0.03 0.04 0.06 0.07 0.06 0.05 0.04 0.04 0.05 0.07 0.08 0.08 0.08 0.06 0.04 0.04 0.04 0.05
0.01 0.01 0.01 0.01 0.01 0.01 0.02 0.01 0.01 0.01 0.01 0.01 0.01 0.02 0.04 0.06 0.06 0.04 0.02 0.02 0.03 0.03 0.05 0.07 0.05 0.03 0.03 0.03 0.04 0.06 0.09 0.07 0.05 0.06 0.07 0.09 0.09 0.06 0.05 0.04 0.04 0.04 0.04 0.05
0.01 0.01 0.01 0.01 0.01 0.03 0.03 0.01 0.01 0.01 0.01 0.01 0.01 0.01 0.03 0.06 0.06 0.06 0.05 0.03 0.03 0.02 0.02 0.03 0.03 0.03 0.03 0.03 0.03 0.04 0.06 0.06 0.08 0.10 0.07 0.05 0.05 0.03 0.03 0.03 0.03 0.03 0.04 0.05
0.01 0.01 0.02 0.02 0.02 0.02 0.01 0.01 0.02 0.02 0.02 0.01 0.01 0.01 0.04 0.11 0.10 0.05 0.03 0.02 0.02 0.01 0.01 0.02 0.01 0.02 0.02 0.02 0.02 0.03 0.04 0.05 0.06 0.06 0.05 0.04 0.03 0.03 0.03 0.03 0.03 0.03 0.03 0.03
0.01 0.01 0.03 0.02 0.01 0.01 0.01 0.01 0.02 0.03 0.03 0.01 0.01 0.02 0.04 0.13 0.15 0.06 0.02 0.01 0.01 0.01 0.01 0.01 0.01 0.01 0.01 0.02 0.02 0.03 0.04 0.04 0.03 0.04 0.04 0.03 0.02 0.03 0.03 0.03 0.03 0.03 0.03 0.04
0.01 0.02 0.03 0.02 0.02 0.02 0.02 0.02 0.01 0.02 0.02 0.02 0.03 0.05 0.06 0.09 0.08 0.04 0.02 0.02 0.01 0.01 0.01 0.01 0.01 0.01 0.01 0.02 0.03 0.03 0.03 0.03 0.04 0.05 0.05 0.03 0.03 0.03 0.03 0.03 0.04 0.04 0.04 0.04
0.01 0.02 0.02 0.02 0.02 0.02 0.01 0.01 0.01 0.01 0.01 0.01 0.02 0.03 0.05 0.09 0.06 0.03 0.02 0.02 0.02 0.02 0.01 0.01 0.01 0.01 0.01 0.01 0.02 0.02 0.02 0.02 0.04 0.08 0.07 0.04 0.04 0.03 0.03 0.03 0.03 0.03 0.03 0.03
0.02 0.05 0.03 0.01 0.01 0.01 0.01 0.01 0.00 0.00 0.00 0.00 0.00 0.01 0.04 0.11 0.09 0.08 0.07 0.04 0.03 0.03 0.02 0.02 0.01 0.01 0.01 0.01 0.02 0.02 0.02 0.03 0.06 0.09 0.06 0.02 0.03 0.03 0.02 0.02 0.02 0.03 0.03 0.03
0.02 0.03 0.02 0.02 0.01 0.01 0.01 0.01 0.01 0.01 0.01 0.01 0.01 0.02 0.06 0.15 0.12 0.09 0.08 0.08 0.05 0.03 0.02 0.02 0.01 0.01 0.01 0.01 0.01 0.02 0.02 0.03 0.03 0.03 0.02 0.02 0.03 0.03 0.03 0.03 0.03 0.03 0.03 0.03
0.04 0.04 0.03 0.02 0.02 0.02 0.02 0.01 0.01 0.01 0.01 0.01 0.02 0.03 0.05 0.14 0.11 0.09 0.06 0.07 0.09 0.07 0.04 0.03 0.03 0.01 0.01 0.01 0.01 0.02 0.01 0.01 0.02 0.02 0.02 0.02 0.02 0.02 0.02 0.02 0.02 0.02 0.03 0.03
0.06 0.05 0.03 0.02 0.02 0.02 0.01 0.01 0.01 0.01 0.01 0.01 0.03 0.08 0.08 0.10 0.06 0.04 0.03 0.04 0.06 0.07 0.07 0.07 0.06 0.05 0.04 0.03 0.02 0.02 0.02 0.01 0.02 0.02 0.02 0.02 0.02 0.02 0.02 0.02 0.02 0.02 0.02 0.03
0.03 0.03 0.02 0.03 0.02 0.05 0.05 0.02 0.01 0.01 0.01 0.02 0.04 0.08 0.11 0.10 0.07 0.06 0.06 0.05 0.06 0.08 0.12 0.14 0.13 0.12 0.06 0.04 0.03 0.02 0.02 0.02 0.01 0.02 0.02 0.02 0.02 0.02 0.03 0.04 0.04 0.04 0.03 0.04
0.03 0.03 0.01 0.02 0.04 0.08 0.10 0.05 0.03 0.02 0.02 0.06 0.05 0.03 0.04 0.04 0.07 0.08 0.08 0.08 0.07 0.08 0.11 0.16 0.13 0.11 0.07 0.04 0.02 0.02 0.02 0.02 0.02 0.03 0.03 0.02 0.01 0.02 0.03 0.04 0.06 0.06 0.03 0.03
0.02 0.03 0.02 0.01 0.01 0.02 0.03 0.05 0.06 0.05 0.08 0.14 0.07 0.03 0.03 0.04 0.06 0.09 0.07 0.07 0.07 0.07 0.10 0.12 0.08 0.06 0.05 0.03 0.03 0.02 0.02 0.03 0.03 0.03 0.03 0.02 0.02 0.02 0.03 0.03 0.04 0.03 0.03 0.03
0.04 0.02 0.02 0.02 0.01 0.01 0.01 0.02 0.05 0.10 0.20 0.15 0.07 0.04 0.04 0.04 0.05 0.08 0.10 0.07 0.08 0.07 0.07 0.09 0.10 0.10 0.07 0.05 0.04 0.04 0.04 0.03 0.04 0.03 0.03 0.02 0.02 0.02 0.02 0.03 0.03 0.03 0.03 0.03
0.06 0.04 0.02 0.02 0.01 0.01 0.01 0.02 0.04 0.06 0.10 0.08 0.07 0.04 0.04 0.04 0.04 0.06 0.13 0.09 0.08 0.07 0.06 0.06 0.07 0.09 0.09 0.07 0.06 0.05 0.04 0.04 0.04 0.03 0.02 0.02 0.02 0.02 0.03 0.03 0.02 0.02 0.02 0.02
0.09 0.07 0.04 0.02 0.01 0.01 0.01 0.02 0.02 0.02 0.03 0.03 0.05 0.03 0.03 0.04 0.05 0.04 0.06 0.07 0.07 0.07 0.06 0.05 0.04 0.04 0.05 0.05 0.05 0.05 0.05 0.05 0.06 0.04 0.04 0.03 0.04 0.03 0.02 0.02 0.02 0.02 0.02 0.02
0.09 0.05 0.03 0.02 0.01 0.01 0.01 0.01 0.01 0.02 0.02 0.03 0.02 0.02 0.02 0.03 0.04 0.04 0.05 0.05 0.06 0.06 0.05 0.04 0.04 0.04 0.03 0.04 0.04 0.04 0.05 0.05 0.06 0.06 0.05 0.04 0.03 0.02 0.02 0.02 0.03 0.03 0.03 0.03
0.03 0.02 0.01 0.01 0.01 0.01 0.01 0.01 0.01 0.01 0.02 0.02 0.02 0.02 0.02 0.03 0.02 0.03 0.03 0.03 0.03 0.03 0.02 0.03 0.03 0.03 0.03 0.03 0.04 0.04 0.04 0.04 0.04 0.05 0.05 0.04 0.03 0.03 0.02 0.02 0.02 0.02 0.01 0.01
0.00 0.00 0.01 0.01 0.01 0.01 0.01 0.02 0.02 0.02 0.02 0.03 0.03 0.03 0.02 0.03 0.02 0.02 0.02 0.02 0.02 0.02 0.02 0.02 0.03 0.02 0.02 0.03 0.04 0.04 0.04 0.03 0.03 0.03 0.04 0.05 0.04 0.03 0.03 0.02 0.02 0.01 0.01 0.01
0.01 0.01 0.01 0.01 0.02 0.02 0.02 0.02 0.02 0.03 0.03 0.03 0.03 0.02 0.03 0.04 0.03 0.02 0.02 0.02 0.02 0.03 0.04 0.04 0.04 0.04 0.04 0.03 0.03 0.03 0.03 0.03 0.03 0.04 0.05 0.06 0.07 0.05 0.03 0.03 0.02 0.02 0.01 0.02
0.02 0.02 0.02 0.02 0.02 0.02 0.03 0.03 0.03 0.03 0.03 0.02 0.02 0.02 0.02 0.02 0.02 0.02 0.03 0.02 0.02 0.02 0.03 0.03 0.04 0.05 0.06 0.06 0.05 0.05 0.03 0.02 0.03 0.04 0.04 0.05 0.06 0.04 0.03 0.03 0.03 0.02 0.01 0.01
0.02 0.02 0.03 0.02 0.01 0.01 0.01 0.01 0.01 0.01 0.02 0.02 0.03 0.02 0.02 0.01 0.02 0.02 0.02 0.02 0.02 0.03 0.03 0.03 0.03 0.03 0.04 0.03 0.04 0.04 0.04 0.03 0.03 0.04 0.05 0.06 0.05 0.03 0.03 0.03 0.04 0.03 0.02 0.01
0.02 0.02 0.02 0.02 0.01 0.01 0.02 0.01 0.01 0.01 0.01 0.01 0.02 0.03 0.03 0.02 0.02 0.02 0.01 0.02 0.02 0.02 0.03 0.03 0.04 0.04 0.04 0.03 0.03 0.03 0.03 0.03 0.04 0.05 0.05 0.06 0.06 0.05 0.04 0.04 0.04 0.03 0.02 0.01
0.02 0.02 0.02 0.01 0.01 0.01 0.01 0.01 0.01 0.01 0.01 0.02 0.03 0.03 0.03 0.02 0.01 0.01 0.02 0.01 0.02 0.02 0.02 0.02 0.02 0.02 0.02 0.02 0.02 0.02 0.03 0.04 0.05 0.05 0.04 0.03 0.03 0.03 0.04 0.04 0.04 0.03 0.02 0.02
0.02 0.02 0.02 0.02 0.03 0.02 0.02 0.02 0.03 0.03 0.02 0.02 0.02 0.02 0.02 0.02 0.01 0.01 0.01 0.01 0.02 0.02 0.01 0.01 0.01 0.01 0.01 0.02 0.02 0.02 0.03 0.04 0.04 0.04 0.03 0.03 0.02 0.02 0.02 0.02 0.02 0.02 0.02 0.02
0.01 0.01 0.02 0.02 0.02 0.02 0.03 0.03 0.03 0.04 0.06 0.05 0.03 0.03 0.02 0.03 0.02 0.01 0.01 0.02 0.02 0.02 0.01 0.01 0.01 0.01 0.02 0.02 0.02 0.03 0.03 0.03 0.04 0.04 0.05 0.04 0.04 0.03 0.02 0.02 0.02 0.02 0.02 0.02
MSLP
1009.19 1009.41 1009.59 1009.79 1010.06 1010.43 1010.91 1011.49 1012.13 1012.81 1013.47 1014.08 1014.62 1015.07 1015.44 1015.75 1016.00 1016.23 1016.44 1016.62 1016.79 1016.91 1016.98 1016.97 1016.89 1016.71 1016.46 1016.13 1015.75 1015.34 1014.92 1014.52 1014.15 1013.83 1013.56 1013.34 1013.16 1013.01 1012.86 1012.71 1012.54 1012.34 1012.13 1011.89
1009.11 1009.32 1009.43 1009.51 1009.62 1009.81 1010.14 1010.60 1011.20 1011.91 1012.67 1013.44 1014.18 1014.85 1015.41 1015.87 1016.23 1016.50 1016.70 1016.85 1016.95 1017.03 1017.08 1017.08 1017.04 1016.95 1016.79 1016.56 1016.27 1015.93 1015.56 1015.18 1014.81 1014.48 1014.18 1013.94 1013.74 1013.57 1013.42 1013.27 1013.11 1012.91 1012.69 1012.45
1009.19 1009.35 1009.38 1009.33 1009.29 1009.34 1009.53 1009.91 1010.47 1011.20 1012.05 1012.96 1013.86 1014.69 1015.41 1015.98 1016.40 1016.69 1016.87 1016.97 1017.01 1017.04 1017.06 1017.07 1017.07 1017.05 1016.98 1016.85 1016.66 1016.40 1016.08 1015.74 1015.38 1015.04 1014.73 1014.47 1014.26 1014.09 1013.94 1013.80 1013.65 1013.47 1013.26 1013.02
1009.35 1009.44 1009.36 1009.20 1009.04 1008.97 1009.06 1009.37 1009.91 1010.66 1011.57 1012.58 1013.60 1014.55 1015.37 1016.03 1016.50 1016.79 1016.95 1017.00 1016.99 1016.98 1016.97 1016.99 1017.03 1017.06 1017.07 1017.03 1016.92 1016.73 1016.48 1016.17 1015.83 1015.50 1015.19 1014.93 1014.72 1014.55 1014.42 1014.30 1014.17 1014.01 1013.82 1013.60
1009.47 1009.45 1009.27 1009.01 1008.75 1008.59 1008.62 1008.89 1009.41 1010.18 1011.15 1012.23 1013.33 1014.37 1015.28 1015.99 1016.50 1016.80 1016.95 1016.97 1016.94 1016.89 1016.88 1016.90 1016.96 1017.04 1017.11 1017.13 1017.09 1016.96 1016.76 1016.49 1016.18 1015.86 1015.57 1015.32 1015.12 1014.97 1014.86 1014.77 1014.67 1014.55 1014.38 1014.17
1009.39 1009.25 1008.97 1008.63 1008.32 1008.12 1008.12 1008.38 1008.92 1009.71 1010.72 1011.85 1013.02 1014.13 1015.09 1015.86 1016.40 1016.74 1016.89 1016.92 1016.88 1016.84 1016.82 1016.85 1016.93 1017.03 1017.14 1017.21 1017.21 1017.13 1016.96 1016.73 1016.45 1016.16 1015.88 1015.65 1015.48 1015.36 1015.28 1015.22 1015.15 1015.05 1014.91 1014.72
1008.98 1008.73 1008.39 1008.02 1007.69 1007.51 1007.53 1007.82 1008.39 1009.22 1010.27 1011.44 1012.66 1013.81 1014.82 1015.64 1016.24 1016.61 1016.81 1016.87 1016.86 1016.83 1016.83 1016.87 1016.96 1017.08 1017.20 1017.28 1017.31 1017.25 1017.11 1016.91 1016.66 1016.40 1016.15 1015.95 1015.81 1015.72 1015.67 1015.63 1015.59 1015.52 1015.40 1015.22
1008.22 1007.90 1007.54 1007.18 1006.90 1006.78 1006.87 1007.23 1007.86 1008.74 1009.82 1011.03 1012.27 1013.46 1014.51 1015.37 1016.02 1016.46 1016.71 1016.82 1016.86 1016.87 1016.89 1016.95 1017.05 1017.17 1017.29 1017.37 1017.40 1017.35 1017.24 1017.06 1016.84 1016.61 1016.40 1016.23 1016.11 1016.05 1016.02 1016.00 1015.98 1015.92 1015.81 1015.64
1007.18 1006.84 1006.51 1006.22 1006.05 1006.04 1006.24 1006.70 1007.40 1008.33 1009.45 1010.68 1011.93 1013.13 1014.20 1015.09 1015.79 1016.28 1016.60 1016.78 1016.87 1016.93 1016.99 1017.06 1017.16 1017.27 1017.38 1017.45 1017.47 1017.43 1017.32 1017.17 1016.98 1016.78 1016.60 1016.47 1016.38 1016.33 1016.31 1016.30 1016.28 1016.22 1016.10 1015.93
1006.02 1005.73 1005.48 1005.32 1005.29 1005.43 1005.78 1006.34 1007.13 1008.10 1009.23 1010.45 1011.69 1012.86 1013.93 1014.83 1015.55 1016.09 1016.46 1016.71 1016.86 1016.97 1017.06 1017.15 1017.25 1017.35 1017.44 1017.50 1017.51 1017.46 1017.37 1017.23 1017.07 1016.91 1016.77 1016.66 1016.59 1016.55 1016.53 1016.51 1016.47 1016.39 1016.26 1016.08
1004.95 1004.74 1004.63 1004.64 1004.79 1005.10 1005.59 1006.27 1007.12 1008.12 1009.23 1010.41 1011.59 1012.71 1013.73 1014.61 1015.33 1015.89 1016.30 1016.60 1016.80 1016.95 1017.07 1017.17 1017.27 1017.36 1017.43 1017.47 1017.47 1017.43 1017.35 1017.23 1017.11 1016.98 1016.87 1016.78 1016.72 1016.67 1016.64 1016.60 1016.54 1016.44 1016.29 1016.09
1004.15 1004.07 1004.13 1004.32 1004.65 1005.13 1005.75 1006.51 1007.40 1008.40 1009.46 1010.56 1011.65 1012.68 1013.62 1014.44 1015.13 1015.68 1016.11 1016.43 1016.67 1016.85 1016.99 1017.11 1017.21 1017.29 1017.34 1017.37 1017.36 1017.32 1017.26 1017.17 1017.07 1016.97 1016.89 1016.82 1016.76 1016.71 1016.66 1016.59 1016.49 1016.36 1016.19 1015.98
1003.71 1003.79 1004.02 1004.38 1004.87 1005.49 1006.21 1007.03 1007.92 1008.88 1009.86 1010.86 1011.82 1012.74 1013.57 1014.31 1014.94 1015.47 1015.89 1016.22 1016.48 1016.68 1016.84 1016.96 1017.06 1017.13 1017.18 1017.19 1017.19 1017.15 1017.10 1017.04 1016.97 1016.90 1016.84 1016.78 1016.72 1016.66 1016.59 1016.49 1016.37 1016.21 1016.02 1015.81
1003.64 1003.87 1004.24 1004.75 1005.37 1006.08 1006.86 1007.69 1008.56 1009.44 1010.33 1011.20 1012.04 1012.82 1013.54 1014.19 1014.76 1015.25 1015.66 1015.99 1016.26 1016.48 1016.64 1016.77 1016.86 1016.93 1016.96 1016.97 1016.97 1016.94 1016.91 1016.87 1016.82 1016.78 1016.74 1016.69 1016.64 1016.56 1016.47 1016.35 1016.21 1016.03 1015.83 1015.61
1003.84 1004.19 1004.68 1005.29 1005.98 1006.74 1007.54 1008.35 1009.16 1009.96 1010.74 1011.49 1012.20 1012.87 1013.50 1014.07 1014.58 1015.04 1015.43 1015.76 1016.04 1016.26 1016.44 1016.57 1016.65 1016.71 1016.74 1016.74 1016.74 1016.72 1016.70 1016.67 1016.65 1016.63 1016.61 1016.57 1016.52 1016.45 1016.35 1016.22 1016.05 1015.87 1015.67 1015.46
1004.18 1004.61 1005.17 1005.82 1006.54 1007.31 1008.08 1008.84 1009.59 1010.30 1010.99 1011.64 1012.25 1012.84 1013.39 1013.90 1014.38 1014.82 1015.21 1015.55 1015.84 1016.07 1016.25 1016.38 1016.46 1016.51 1016.53 1016.52 1016.51 1016.50 1016.49 1016.48 1016.48 1016.48 1016.47 1016.45 1016.41 1016.34 1016.24 1016.11 1015.95 1015.76 1015.56 1015.37
1004.51 1004.98 1005.55 1006.21 1006.91 1007.64 1008.36 1009.07 1009.74 1010.38 1010.99 1011.57 1012.13 1012.66 1013.18 1013.68 1014.15 1014.60 1015.00 1015.36 1015.66 1015.90 1016.09 1016.21 1016.29 1016.33 1016.33 1016.32 1016.31 1016.29 1016.29 1016.30 1016.31 1016.33 1016.35 1016.35 1016.32 1016.27 1016.18 1016.06 1015.90 1015.73 1015.54 1015.36
1004.73 1005.19 1005.74 1006.36 1007.01 1007.68 1008.34 1008.98 1009.59 1010.18 1010.74 1011.29 1011.82 1012.35 1012.87 1013.38 1013.88 1014.34 1014.78 1015.16 1015.48 1015.73 1015.93 1016.05 1016.12 1016.15 1016.15 1016.13 1016.11 1016.10 1016.10 1016.12 1016.15 1016.19 1016.23 1016.26 1016.26 1016.23 1016.16 1016.06 1015.92 1015.76 1015.59 1015.42
1004.78 1005.22 1005.72 1006.28 1006.86 1007.46 1008.05 1008.62 1009.19 1009.74 1010.28 1010.82 1011.36 1011.91 1012.46 1013.01 1013.54 1014.04 1014.51 1014.92 1015.26 1015.53 1015.73 1015.86 1015.93 1015.95 1015.94 1015.92 1015.90 1015.90 1015.91 1015.94 1016.00 1016.06 1016.13 1016.18 1016.21 1016.21 1016.17 1016.10 1015.99 1015.85 1015.70 1015.54
1004.73 1005.12 1005.57 1006.05 1006.56 1007.07 1007.60 1008.12 1008.64 1009.16 1009.70 1010.24 1010.81 1011.39 1011.97 1012.56 1013.13 1013.67 1014.17 1014.60 1014.97 1015.25 1015.46 1015.60 1015.67 1015.70 1015.70 1015.68 1015.67 1015.68 1015.71 1015.76 1015.84 1015.93 1016.03 1016.11 1016.18 1016.21 1016.20 1016.16 1016.08 1015.97 1015.83 1015.69
1004.65 1005.00 1005.39 1005.80 1006.23 1006.67 1007.12 1007.59 1008.07 1008.57 1009.10 1009.65 1010.23 1010.83 1011.45 1012.06 1012.66 1013.23 1013.75 1014.21 1014.59 1014.89 1015.11 1015.26 1015.35 1015.39 1015.41 1015.41 1015.42 1015.45 1015.50 1015.58 1015.69 1015.80 1015.93 1016.05 1016.14 1016.21 1016.24 1016.23 1016.18 1016.10 1016.00 1015.87
1004.65 1004.97 1005.29 1005.64 1005.99 1006.36 1006.75 1007.16 1007.60 1008.07 1008.57 1009.12 1009.69 1010.30 1010.93 1011.55 1012.16 1012.74 1013.27 1013.74 1014.13 1014.45 1014.69 1014.87 1014.98 1015.05 1015.10 1015.13 1015.17 1015.23 1015.31 1015.42 1015.55 1015.69 1015.84 1015.99 1016.11 1016.21 1016.28 1016.31 1016.30 1016.25 1016.18 1016.08
1004.81 1005.09 1005.37 1005.65 1005.94 1006.24 1006.56 1006.91 1007.29 1007.72 1008.19 1008.70 1009.26 1009.84 1010.45 1011.06 1011.66 1012.24 1012.77 1013.24 1013.65 1013.98 1014.25 1014.46 1014.61 1014.73 1014.82 1014.89 1014.97 1015.07 1015.18 1015.31 1015.45 1015.62 1015.78 1015.95 1016.10 1016.23 1016.33 1016.39 1016.42 1016.42 1016.38 1016.32
1005.15 1005.40 1005.64 1005.87 1006.09 1006.33 1006.58 1006.86 1007.18 1007.55 1007.97 1008.43 1008.94 1009.48 1010.05 1010.63 1011.21 1011.77 1012.29 1012.76 1013.19 1013.55 1013.85 1014.11 1014.31 1014.47 1014.62 1014.74 1014.86 1014.98 1015.12 1015.27 1015.43 1015.60 1015.77 1015.94 1016.11 1016.26 1016.39 1016.49 1016.57 1016.61 1016.62 1016.60
1005.66 1005.89 1006.09 1006.26 1006.43 1006.60 1006.78 1007.00 1007.25 1007.55 1007.90 1008.30 1008.75 1009.24 1009.76 1010.30 1010.84 1011.38 1011.89 1012.37 1012.81 1013.20 1013.55 1013.85 1014.11 1014.33 1014.53 1014.70 1014.86 1015.01 1015.16 1015.31 1015.47 1015.64 1015.81 1015.98 1016.15 1016.32 1016.47 1016.61 1016.73 1016.82 1016.88 1016.91
1006.28 1006.48 1006.64 1006.77 1006.89 1007.00 1007.12 1007.26 1007.45 1007.68 1007.96 1008.30 1008.68 1009.12 1009.58 1010.08 1010.59 1011.10 1011.61 1012.09 1012.56 1012.99 1013.38 1013.73 1014.05 1014.33 1014.57 1014.78 1014.97 1015.14 1015.29 1015.44 1015.59 1015.74 1015.89 1016.06 1016.23 1016.40 1016.57 1016.74 1016.90 1017.05 1017.16 1017.24
1006.94 1007.11 1007.24 1007.32 1007.39 1007.44 1007.51 1007.60 1007.72 1007.89 1008.11 1008.39 1008.72 1009.09 1009.51 1009.97 1010.45 1010.95 1011.45 1011.95 1012.44 1012.90 1013.34 1013.74 1014.10 1014.42 1014.70 1014.94 1015.15 1015.33 1015.48 1015.62 1015.74 1015.87 1016.01 1016.15 1016.31 1016.49 1016.68 1016.88 1017.08 1017.27 1017.43 1017.55
Thickness
5791 5799 5801 5798 5799 5800 5790 5780 5767 5770 5773 5782 5790 5793 5795 5794 5791 5788 5784 5782 5779 5776 5773 5771 5768 5764 5760 5757 5753 5750 5744 5740 5736 5734 5731 5727 5723 5721 5719 5716 5713 5710 5706 5703
5782 5794 5795 5792 5797 5797 5793 5789 5781 5777 5776 5794 5797 5795 5790 5789 5787 5781 5780 5779 5777 5774 5771 5767 5765 5761 5758 5755 5752 5748 5742 5737 5734 5730 5727 5723 5719 5716 5714 5711 5708 5705 5701 5698
5760 5777 5780 5768 5787 5790 5786 5788 5784 5772 5780 5793 5789 5788 5786 5786 5784 5779 5776 5774 5773 5771 5769 5766 5764 5761 5756 5752 5749 5744 5739 5735 5730 5726 5722 5718 5716 5712 5709 5707 5704 5700 5697 5694
5749 5758 5743 5769 5798 5798 5788 5785 5788 5786 5787 5790 5788 5787 5788 5787 5782 5777 5775 5773 5772 5770 5768 5765 5763 5759 5755 5750 5745 5740 5735 5730 5726 5723 5719 5715 5712 5708 5705 5703 5699 5696 5692 5690
5736 5735 5745 5772 5789 5790 5778 5771 5784 5782 5783 5785 5786 5780 5776 5783 5784 5779 5777 5774 5772 5770 5766 5763 5760 5756 5750 5744 5740 5735 5731 5726 5723 5720 5716 5711 5707 5704 5701 5698 5695 5691 5688 5684
5735 5732 5730 5758 5787 5797 5782 5756 5778 5780 5777 5778 5777 5756 5761 5778 5780 5778 5776 5773 5769 5766 5763 5758 5755 5752 5745 5739 5735 5730 5728 5724 5720 5716 5712 5708 5704 5701 5698 5695 5691 5688 5684 5680
5730 5728 5740 5768 5786 5787 5751 5750 5774 5777 5776 5774 5768 5766 5771 5776 5776 5774 5771 5768 5765 5761 5756 5753 5751 5746 5739 5734 5730 5728 5725 5721 5717 5713 5709 5705 5701 5698 5694 5691 5686 5682 5678 5675
5722 5719 5729 5770 5773 5762 5758 5770 5773 5773 5774 5771 5769 5770 5770 5769 5767 5766 5763 5761 5758 5753 5749 5747 5745 5740 5734 5730 5728 5725 5721 5717 5713 5709 5706 5702 5696 5692 5689 5684 5680 5676 5672 5668
5727 5730 5750 5763 5765 5769 5770 5765 5766 5767 5768 5768 5764 5762 5762 5760 5758 5757 5754 5752 5750 5747 5743 5740 5739 5736 5730 5727 5724 5720 5715 5711 5707 5704 5701 5697 5692 5687 5682 5678 5674 5670 5666 5662
5727 5736 5746 5754 5760 5764 5767 5765 5765 5765 5765 5762 5757 5755 5752 5749 5747 5745 5744 5742 5740 5738 5734 5732 5732 5730 5726 5723 5720 5715 5709 5705 5702 5698 5695 5691 5687 5682 5677 5673 5668 5664 5660 5657
5717 5727 5736 5744 5750 5754 5758 5760 5759 5758 5758 5756 5752 5747 5744 5740 5737 5736 5735 5733 5732 5730 5726 5724 5723 5721 5719 5715 5712 5707 5703 5699 5696 5693 5689 5684 5680 5676 5673 5670 5666 5662 5658 5654
5707 5720 5723 5729 5741 5747 5748 5748 5748 5746 5744 5745 5744 5739 5736 5733 5731 5729 5727 5726 5723 5720 5717 5714 5714 5713 5711 5708 5705 5699 5694 5692 5689 5685 5682 5678 5673 5670 5668 5665 5663 5660 5656 5651
5718 5724 5726 5731 5736 5739 5739 5740 5739 5738 5736 5733 5733 5732 5729 5725 5724 5722 5720 5718 5716 5713 5710 5707 5704 5704 5703 5701 5698 5694 5689 5686 5682 5679 5675 5671 5667 5663 5659 5657 5655 5653 5650 5647
5718 5718 5715 5720 5723 5729 5731 5732 5731 5729 5727 5725 5723 5721 5719 5716 5714 5713 5712 5711 5710 5707 5704 5701 5698 5696 5696 5695 5692 5688 5684 5681 5677 5673 5669 5665 5661 5658 5654 5650 5646 5644 5643 5640
5708 5710 5709 5713 5715 5718 5720 5720 5717 5715 5715 5713 5713 5711 5709 5706 5704 5704 5704 5704 5702 5699 5697 5695 5692 5690 5690 5688 5684 5681 5677 5674 5671 5667 5663 5659 5656 5652 5649 5645 5641 5637 5635 5632
5697 5699 5701 5702 5703 5704 5706 5707 5705 5704 5705 5704 5703 5703 5702 5700 5699 5697 5695 5696 5693 5690 5689 5687 5685 5685 5683 5680 5677 5674 5671 5670 5666 5661 5657 5653 5650 5646 5642 5638 5634 5631 5628 5626
5684 5684 5687 5688 5692 5694 5696 5697 5696 5696 5696 5696 5696 5696 5694 5692 5689 5688 5688 5688 5687 5685 5683 5681 5680 5679 5677 5674 5671 5668 5665 5662 5660 5655 5651 5648 5644 5640 5636 5632 5628 5626 5624 5622
5682 5683 5684 5684 5684 5685 5687 5688 5688 5688 5688 5689 5689 5687 5685 5682 5680 5680 5680 5680 5678 5676 5676 5675 5674 5672 5671 5668 5666 5663 5659 5656 5652 5648 5644 5641 5638 5634 5630 5627 5623 5621 5618 5616
5675 5678 5679 5680 5680 5679 5679 5680 5680 5680 5681 5680 5679 5676 5675 5675 5674 5673 5673 5670 5668 5666 5667 5668 5668 5666 5664 5662 5660 5656 5653 5649 5645 5641 5637 5633 5630 5627 5624 5621 5617 5615 5612 5609
5666 5669 5671 5672 5674 5673 5672 5672 5672 5671 5672 5671 5670 5668 5666 5665 5666 5665 5663 5661 5660 5661 5662 5661 5660 5658 5656 5654 5652 5649 5646 5643 5639 5634 5630 5627 5623 5621 5618 5615 5611 5608 5606 5603
5656 5657 5659 5661 5662 5664 5664 5665 5664 5663 5663 5663 5661 5660 5658 5658 5658 5656 5654 5652 5654 5655 5655 5654 5652 5649 5647 5645 5644 5641 5638 5635 5632 5628 5624 5620 5617 5614 5612 5608 5606 5603 5600 5597
5646 5647 5649 5651 5652 5653 5655 5657 5658 5657 5656 5655 5654 5653 5650 5649 5648 5648 5647 5646 5647 5647 5646 5645 5643 5642 5639 5638 5635 5632 5630 5628 5625 5622 5618 5614 5611 5608 5605 5603 5600 5598 5595 5593
5638 5639 5641 5642 5644 5645 5647 5648 5650 5650 5649 5648 5646 5644 5643 5642 5641 5639 5637 5639 5640 5639 5638 5636 5635 5633 5632 5629 5627 5624 5623 5621 5618 5615 5612 5608 5605 5602 5599 5596 5594 5592 5589 5587
5631 5632 5633 5635 5637 5637 5636 5639 5641 5643 5643 5642 5641 5639 5638 5635 5634 5635 5635 5634 5633 5631 5630 5628 5627 5625 5624 5621 5619 5617 5615 5613 5610 5608 5605 5602 5599 5596 5593 5590 5587 5585 5583 5581
5623 5624 5626 5627 5627 5627 5629 5631 5632 5633 5633 5633 5633 5633 5633 5632 5629 5628 5627 5626 5625 5623 5621 5620 5619 5617 5615 5612 5611 5609 5607 5605 5604 5601 5598 5595 5592 5589 5586 5583 5581 5578 5576 5574
5616 5617 5617 5618 5619 5620 5622 5623 5622 5623 5623 5622 5623 5624 5625 5624 5624 5622 5619 5618 5617 5615 5612 5610 5609 5607 5605 5603 5602 5600 5598 5597 5595 5593 5590 5587 5584 5581 5578 5576 5573 5571 5569 5568
5608 5609 5609 5610 5612 5614 5615 5615 5614 5615 5615 5615 5614 5616 5617 5616 5615 5613 5612 5610 5608 5606 5604 5601 5600 5598 5596 5595 5593 5591 5589 5587 5585 5583 5581 5579 5576 5573 5570 5568 5566 5564 5561 5559